TITAN 3C TRANSTAGE DEB, 34163

Orbit data source: Space-Track

TITAN 3C TRANSTAGE DEB, 34163 is space debris in HEO originally from a launch on Tue, 21 Dec 1965 UTC launched from the Air Force Eastern Test Range (AFETR). Debris objects in space refer to the collection of defunct objects orbiting the Earth. Examples of debris include non-operational satellites, rocket bodies, and fragments generated from explosions, collisions, or faulty payload assembly.

Loading next visibility...
Identifier
34163, 1965-108CW
Orbit
HEO
Country
Flag of USUS
Related business
Manufacturer
Unknown
Mission
Spacecraft
Bus & Motor
Unknown
Mass
Unknown
Launch date (UTC)
1965-12-21 (60 years ago)
Launch vehicle
Unknown
Launch site
Air Force Eastern Test Range (AFETR)
Object type
Payload
Rocket body
Debris
Shape & HBR
Unknown shape, 0.2 m
Radar Cross Section
Medium (>0.1 m² and <1 m²)

Expand to show TLE details & history
Last TLE update: 4 weeks ago

TLE from 4 weeks ago
0 TITAN 3C TRANSTAGE DEB
1 34163U 65108CW  25264.34796083  .00000011  00000-0  00000-0 0  9998
2 34163  26.0891 127.3700 6666873 162.0130   0.5591  2.49347965 17579
Epoch: 2025-09-21T08:21Z
TLE epoch observation values (Epoch: 2025-09-21T08:21:03.815Z)
Latitude
6.62747°
Longitude
168.01265°
Altitude
1,296.847 km
Speed
9.301 km/s
True Right ascension
19h 34m 59s
True Declination
6° 35' 27"
Sunlit
Object was in daylight at epoch
Visualization orbit readout
Latitude
Unknown
Longitude
Unknown
Altitude
Unknown
Speed
Unknown
Apparent Right ascension
Unknown
Apparent Declination
Unknown
Sunlit
N/A
Visualization observer readout
Local Sidereal Time
11:00:32
Azimuth
Unknown
Elevation
Unknown
Doppler factor
Unknown
Orbital elements
Apogee altitude
31,914.431 km
Perigee altitude
1,279.808 km
Semi-major axis
22,975.256 km
Eccentricity
0.66669
Inclination
26.0891°
RAAN
127.37°
Arg. of periapsis
162.013°
True anomaly
3.74879°
Mean anomaly
0.5591°
Eccentric anomaly
1.67692°
Mean motion
0.62324 °/min
Orbital period
577.63 mins
BSTAR
0
Loading maneuver chart data...
Computing Atmospheric mass density...

Documentation

Showing up to 5 results
|